Whiteville, NC

11:15 PM EST on November 22, 2017 (GMT -0500)
Columbus County Municipal

Weather History for KCPC - February, 2013

Change the Weather History Date:

Wednesday, February 6, 2013

  Actual Average (KCRE) Record (KCRE)
Temperature  
Mean Temperature 53 °F -  
Max Temperature 67 °F 53 °F 71 °F (1956)
Min Temperature 39 °F 37 °F 15 °F (1996)
Degree Days  
Heating Degree Days 12    
Growing Degree Days 3 (Base 50)    
Moisture  
Dew Point 39 °F    
Average Humidity 67    
Maximum Humidity 96    
Minimum Humidity 28    
Precipitation  
Precipitation 0.00 in - - ()
Sea Level Pressure  
Sea Level Pressure 30.12 in    
Wind  
Wind Speed 1 mph (NW)    
Max Wind Speed 7 mph    
Max Gust Speed -    
Visibility 10 miles    
Events      
Averages and records for this station are not official NWS values.
T = Trace of Precipitation, MM = Missing Value Source: NWS Daily Summary

Daily Weather History Graph

Daily Weather History Graph

Search for Another Location

Airport or City:

Trip Planner

Search our weather history database for the weather conditions in past years. The results will help you decide how hot, cold, wet, or windy it might be!

Date:

Astronomy

Feb. 06, 2013 Rise Set
Actual Time 7:08 AM EST 5:50 PM EST
Civil Twilight 6:42 AM EST 6:16 PM EST
Nautical Twilight 6:12 AM EST 6:46 PM EST
Astronomical Twilight 5:43 AM EST 7:15 PM EST
Moon 3:45 AM EST (2/6) 2:11 PM EST (2/6)
Length of Visible Light 11h 34m
Length of Day
10h 41m
Waning Crescent, 17% of the Moon is Illuminated
Feb 6
Waning Crescent
Feb 10
New
Feb 17
First Quarter
Feb 25
Full
Mar 4
Last Quarter

Hourly Weather History & Observations

Time (EST) Temp. Windchill Dew Point Humidity Pressure Visibility Wind Dir Wind Speed Gust Speed Precip Events Conditions
12:15 AM 49.1 °F - 41.0 °F 74% 30.00 in 10.0 mi Calm Calm - N/A   Clear
12:35 AM 47.8 °F - 40.5 °F 76% 30.00 in 10.0 mi Calm Calm - N/A   Clear
12:55 AM 45.9 °F - 40.6 °F 82% 30.00 in 10.0 mi Calm Calm - N/A   Clear
1:15 AM 45.9 °F - 40.6 °F 82% 30.00 in 10.0 mi Calm Calm - N/A   Clear
1:35 AM 46.2 °F - 41.4 °F 83% 30.00 in 10.0 mi Calm Calm - N/A   Clear
2:15 AM 45.7 °F - 41.4 °F 85% 30.00 in 10.0 mi Calm Calm - N/A   Clear
2:35 AM 45.7 °F - 41.9 °F 87% 30.00 in 10.0 mi Calm Calm - N/A   Clear
2:55 AM 46.9 °F - 43.2 °F 87% 30.01 in 10.0 mi Calm Calm - N/A   Clear
3:15 AM 46.2 °F - 42.4 °F 87% 30.01 in 10.0 mi Calm Calm - N/A   Clear
3:35 AM 45.0 °F - 41.2 °F 87% 30.01 in 10.0 mi Calm Calm - N/A   Clear
3:55 AM 46.2 °F - 42.6 °F 87% 30.02 in 10.0 mi Calm Calm - N/A   Clear
4:15 AM 45.1 °F - 42.3 °F 90% 30.02 in 10.0 mi Calm Calm - N/A   Clear
4:35 AM 44.2 °F - 42.1 °F 92% 30.03 in 10.0 mi Calm Calm - N/A   Clear
4:55 AM 43.5 °F - 41.4 °F 92% 30.03 in 10.0 mi Calm Calm - N/A   Clear
5:15 AM 43.9 °F - 42.8 °F 96% 30.04 in 10.0 mi Calm Calm - N/A   Clear
5:35 AM 41.0 °F - 39.4 °F 94% 30.06 in 10.0 mi Calm Calm - N/A   Clear
5:55 AM 40.5 °F - 39.0 °F 95% 30.06 in 10.0 mi Calm Calm - N/A   Clear
6:15 AM 40.3 °F - 39.0 °F 95% 30.07 in 10.0 mi Calm Calm - N/A   Clear
6:35 AM 40.1 °F - 39.0 °F 96% 30.08 in 7.0 mi Calm Calm - N/A   Clear
6:55 AM 39.6 °F - 38.3 °F 95% 30.08 in 10.0 mi Calm Calm - N/A   Clear
7:15 AM 39.7 °F - 38.3 °F 95% 30.09 in 10.0 mi Calm Calm - N/A   Clear
7:35 AM 40.1 °F - 39.0 °F 96% 30.09 in 7.0 mi Calm Calm - N/A   Clear
7:55 AM 41.5 °F - 40.3 °F 95% 30.10 in 10.0 mi Calm Calm - N/A   Clear
8:15 AM 45.3 °F - 43.3 °F 93% 30.11 in 10.0 mi Calm Calm - N/A   Clear
8:35 AM 49.3 °F - 45.7 °F 87% 30.12 in 10.0 mi WNW 3.5 mph - N/A   Clear
8:55 AM 52.0 °F - 46.4 °F 81% 30.13 in 10.0 mi WNW 3.5 mph - N/A   Clear
9:15 AM 53.2 °F - 46.6 °F 78% 30.14 in 10.0 mi Calm Calm - N/A   Clear
9:35 AM 54.7 °F - 46.8 °F 75% 30.15 in 10.0 mi West 3.5 mph - N/A   Clear
9:55 AM 56.5 °F - 46.8 °F 70% 30.15 in 10.0 mi West 3.5 mph - N/A   Clear
10:15 AM 58.5 °F - 46.6 °F 65% 30.15 in 10.0 mi Calm Calm - N/A   Clear
10:35 AM 60.1 °F - 44.6 °F 57% 30.15 in 10.0 mi NW 3.5 mph - N/A   Clear
10:55 AM 61.7 °F - 42.3 °F 49% 30.16 in 10.0 mi North 6.9 mph - N/A   Clear
11:15 AM 62.4 °F - 40.5 °F 44% 30.16 in 10.0 mi North 4.6 mph - N/A   Clear
11:35 AM 63.0 °F - 38.3 °F 40% 30.15 in 10.0 mi NNE 3.5 mph - N/A   Clear
11:55 AM 64.0 °F - 37.4 °F 37% 30.14 in 10.0 mi NNW 3.5 mph - N/A   Clear
12:15 PM 64.6 °F - 35.8 °F 34% 30.13 in 10.0 mi North 3.5 mph - N/A   Clear
12:35 PM 64.6 °F - 34.5 °F 33% 30.13 in 10.0 mi NNW 4.6 mph - N/A   Clear
12:55 PM 65.5 °F - 35.6 °F 33% 30.13 in 10.0 mi Calm Calm - N/A   Clear
1:15 PM 65.5 °F - 35.4 °F 33% 30.12 in 7.0 mi ENE 3.5 mph - N/A   Clear
1:35 PM 65.7 °F - 32.7 °F 29% 30.11 in 7.0 mi West 3.5 mph - N/A   Clear
1:55 PM 66.7 °F - 32.9 °F 28% 30.11 in 10.0 mi South 3.5 mph - N/A   Clear
2:15 PM 66.0 °F - 33.1 °F 29% 30.11 in 10.0 mi Calm Calm - N/A   Clear
2:35 PM 67.1 °F - 33.4 °F 29% 30.11 in 10.0 mi North 4.6 mph - N/A   Clear
2:55 PM 67.1 °F - 32.5 °F 28% 30.11 in 10.0 mi WNW 3.5 mph - N/A   Clear
3:15 PM 67.1 °F - 32.7 °F 28% 30.11 in 10.0 mi Calm Calm - N/A   Clear
3:35 PM 67.1 °F - 33.1 °F 28% 30.11 in 10.0 mi NNW 3.5 mph - N/A   Clear
3:55 PM 67.1 °F - 32.5 °F 28% 30.11 in 10.0 mi Calm Calm - N/A   Clear
4:15 PM 67.3 °F - 32.5 °F 28% 30.11 in 10.0 mi Calm Calm - N/A   Clear
4:35 PM 66.9 °F - 32.4 °F 28% 30.11 in 10.0 mi Calm Calm - N/A   Clear
4:55 PM 65.7 °F - 33.8 °F 31% 30.12 in 10.0 mi Calm Calm - N/A   Clear
5:15 PM 64.4 °F - 33.8 °F 32% 30.12 in 10.0 mi Calm Calm - N/A   Clear
5:35 PM 62.8 °F - 36.3 °F 37% 30.13 in 10.0 mi Calm Calm - N/A   Clear
5:55 PM 60.4 °F - 37.8 °F 43% 30.14 in 10.0 mi Calm Calm - N/A   Clear
6:15 PM 59.0 °F - 38.5 °F 47% 30.15 in 10.0 mi Calm Calm - N/A   Clear
6:35 PM 53.6 °F - 40.3 °F 61% 30.16 in 10.0 mi SE 4.6 mph - N/A   Clear
6:55 PM 57.2 °F - 39.6 °F 52% 30.16 in 10.0 mi Calm Calm - N/A   Clear
7:15 PM 55.6 °F - 40.1 °F 56% 30.18 in 10.0 mi Calm Calm - N/A   Clear
7:35 PM 52.0 °F - 40.3 °F 64% 30.19 in 10.0 mi South 3.5 mph - N/A   Clear
7:55 PM 52.2 °F - 41.0 °F 66% 30.19 in 10.0 mi Calm Calm - N/A   Clear
8:15 PM 48.2 °F - 40.5 °F 75% 30.19 in 10.0 mi Calm Calm - N/A   Clear
8:35 PM 48.2 °F - 40.1 °F 74% 30.19 in 10.0 mi Calm Calm - N/A   Clear
8:55 PM 46.9 °F - 40.3 °F 78% 30.21 in 10.0 mi Calm Calm - N/A   Clear
9:15 PM 46.4 °F - 40.3 °F 79% 30.21 in 10.0 mi Calm Calm - N/A   Clear
9:35 PM 45.1 °F - 40.1 °F 82% 30.21 in 10.0 mi Calm Calm - N/A   Clear
9:55 PM 45.5 °F - 40.8 °F 84% 30.21 in 10.0 mi Calm Calm - N/A   Clear
10:15 PM 43.9 °F - 40.3 °F 87% 30.20 in 10.0 mi Calm Calm - N/A   Clear
10:35 PM 42.3 °F - 39.6 °F 90% 30.20 in 10.0 mi Calm Calm - N/A   Clear
10:55 PM 43.9 °F - 40.1 °F 87% 30.21 in 10.0 mi Calm Calm - N/A   Clear
11:15 PM 43.2 °F - 39.7 °F 88% 30.21 in 10.0 mi Calm Calm - N/A   Clear
11:35 PM 44.2 °F - 40.6 °F 87% 30.24 in 10.0 mi Calm Calm - N/A   Clear
11:55 PM 40.8 °F 37.8 °F 38.3 °F 91% 30.24 in 10.0 mi North 4.6 mph - N/A   Clear